Location: Aalen
(48.8330°N, 10.1000°E)
Time: 08:55:07
(UTC+02:00)

Transit 2A - Pass Details

Date: 30 July 2021
Orbit: 594 x 964 km, 66.7° (Epoch: 24 September)

Event Time Altitude Azimuth Distance (km) Brightness Sun altitude
Rises 13:36:20 0° 324° (NW) 3,083 8.9 59.5°
Reaches altitude 10° 13:39:49 10° 350° (N) 2,245 8.2 59.4°
Maximum altitude 13:42:27 14° 21° (NNE) 2,047 8.1 59.4°
Drops below altitude 10° 13:45:12 10° 52° (NE) 2,372 8.4 59.3°
Sets 13:49:04 0° 77° (ENE) 3,393 9.2 59.2°
